FW8602 Weather Reports


Display with metric or nautical units.
time (UTC)temp
F
wind
direction
speed
MPH
gust
MPH
rain 1hr
in
rain 24hr
in
rain mn
in
humidity
%
barometer
mb
20260505220100 77 0 1.0 5.0 0.00 0.00 0.00 39 1007.2
20260505215603 77 141 0.0 10.0 0.00 0.00 0.00 39 1007.2
20260505215059 78 206 2.0 10.0 0.00 0.00 0.00 39 1007.2
20260505214635 78 136 1.0 5.0 0.00 0.00 0.00 39 1007.2
20260505214059 78 131 1.0 5.0 0.00 0.00 0.00 39 1007.2
20260505213648 78 140 1.0 5.0 0.00 0.00 0.00 38 1007.1
20260505213111 78 0 0.0 5.0 0.00 0.00 0.00 38 1007.1
20260505212558 78 0 1.0 6.0 0.00 0.00 0.00 37 1007.1
20260505212058 78 0 1.0 6.0 0.00 0.00 0.00 36 1007.1
20260505211602 78 0 0.0 6.0 0.00 0.00 0.00 37 1007.2
20260505211059 78 0 2.0 10.0 0.00 0.00 0.00 37 1007.2
20260505210559 78 6 1.0 11.0 0.00 0.00 0.00 37 1007.2
20260505210100 78 297 2.0 11.0 0.00 0.00 0.00 36 1007.1
20260505205558 78 86 2.0 8.0 0.00 0.00 0.00 36 1007.1
20260505205058 78 0 2.0 7.0 0.00 0.00 0.00 36 1007.1
20260505204601 79 0 1.0 7.0 0.00 0.00 0.00 36 1007.0
20260505204059 79 245 2.0 7.0 0.00 0.00 0.00 36 1007.0
20260505203601 79 0 1.0 8.0 0.00 0.00 0.00 36 1007.1
20260505203100 79 315 2.0 8.0 0.00 0.00 0.00 35 1007.0
20260505202559 79 211 0.0 6.0 0.00 0.00 0.00 36 1007.0
20260505202058 79 255 0.0 7.0 0.00 0.00 0.00 36 1007.0
20260505201600 80 270 2.0 10.0 0.00 0.00 0.00 36 1006.9
20260505201059 80 356 2.0 11.0 0.00 0.00 0.00 36 1006.9
20260505200559 81 283 3.0 12.0 0.00 0.00 0.00 35 1007.1
20260505195558 82 248 3.0 16.0 0.00 0.00 0.00 34 1007.0
20260505195058 81 120 4.0 16.0 0.00 0.00 0.00 34 1007.1
20260505194610 81 49 3.0 9.0 0.00 0.00 0.00 35 1007.0
20260505194058 81 210 2.0 11.0 0.00 0.00 0.00 35 1006.9
20260505193558 82 298 4.0 11.0 0.00 0.00 0.00 34 1007.1
20260505193100 83 138 1.0 10.0 0.00 0.00 0.00 33 1007.0
20260505192558 83 249 3.0 10.0 0.00 0.00 0.00 33 1007.0
20260505192100 82 274 3.0 12.0 0.00 0.00 0.00 34 1007.2
20260505191607 82 320 3.0 12.0 0.00 0.00 0.00 34 1007.2
20260505191101 83 323 3.0 11.0 0.00 0.00 0.00 35 1007.4
20260505190558 82 157 1.0 10.0 0.00 0.00 0.00 34 1007.3
20260505190107 82 264 3.0 10.0 0.00 0.00 0.00 36 1007.6
20260505185559 82 285 3.0 11.0 0.00 0.00 0.00 38 1007.7
20260505185059 82 194 3.0 13.0 0.00 0.00 0.00 36 1007.8
20260505184604 82 285 3.0 13.0 0.00 0.00 0.00 37 1007.8
20260505184059 82 330 3.0 10.0 0.00 0.00 0.00 36 1007.8
20260505183600 82 262 4.0 9.0 0.00 0.00 0.00 37 1007.8
20260505153059 78 299 3.0 11.0 0.00 0.00 0.00 45 1009.4
20260505152559 78 163 3.0 11.0 0.00 0.00 0.00 45 1009.4
20260505152059 77 121 3.0 11.0 0.00 0.00 0.00 45 1009.5
20260505151621 77 325 3.0 11.0 0.00 0.00 0.00 45 1009.5
20260505151102 77 125 3.0 13.0 0.00 0.00 0.00 44 1009.4
20260505150559 77 274 4.0 13.0 0.00 0.00 0.00 43 1009.5
20260505140558 75 302 2.0 8.0 0.00 0.00 0.00 47 1009.8
20260505124600 69 285 0.0 2.0 0.00 0.00 0.00 56 1010.2
20260505124059 69 188 0.0 2.0 0.00 0.00 0.00 59 1010.3
20260505123558 69 354 0.0 2.0 0.00 0.00 0.00 57 1010.1
20260505123101 69 0 0.0 2.0 0.00 0.00 0.00 59 1010.1
20260505122559 68 0 0.0 2.0 0.00 0.00 0.00 61 1010.1
20260505122059 67 0 0.0 1.0 0.00 0.00 0.00 64 1010.0
20260505121601 67 111 0.0 1.0 0.00 0.00 0.00 65 1010.0
20260505121058 66 0 0.0 1.0 0.00 0.00 0.00 64 1010.1
20260505120558 66 0 0.0 0.0 0.00 0.00 0.00 65 1010.2
20260505120124 64 0 0.0 0.0 0.00 0.00 0.00 66 1010.2
20260505115558 63 0 0.0 0.0 0.00 0.00 0.00 69 1010.3
20260505115059 61 0 0.0 0.0 0.00 0.00 0.00 74 1010.2
20260505114601 59 0 0.0 0.0 0.00 0.00 0.00 77 1010.2
20260505114102 57 0 0.0 0.0 0.00 0.00 0.00 79 1010.2
20260505113558 56 0 0.0 1.0 0.00 0.00 0.00 80 1010.0
20260505113101 56 0 0.0 1.0 0.00 0.00 0.00 80 1009.9
20260505112558 55 0 0.0 1.0 0.00 0.00 0.00 81 1010.0
20260505112058 54 0 0.0 0.0 0.00 0.00 0.00 84 1010.0
20260505111601 53 0 0.0 0.0 0.00 0.00 0.00 84 1010.0
20260505111058 53 0 0.0 0.0 0.00 0.00 0.00 83 1010.0
20260505110602 52 0 0.0 0.0 0.00 0.00 0.00 83 1010.0
20260505102058 51 0 0.0 0.0 0.00 0.00 0.00 83 1009.4
20260505101600 51 0 0.0 0.0 0.00 0.00 0.00 83 1009.4
20260505101058 51 0 0.0 0.0 0.00 0.00 0.00 83 1009.3
20260505100559 51 0 0.0 0.0 0.00 0.00 0.00 82 1009.3
20260505095558 51 0 0.0 0.0 0.00 0.00 0.00 82 1009.4
20260505095058 51 0 0.0 0.0 0.00 0.00 0.00 82 1009.4
20260505094601 52 0 0.0 0.0 0.00 0.00 0.00 82 1009.2
20260505094058 52 0 0.0 1.0 0.00 0.00 0.00 82 1009.2
20260505093558 52 0 0.0 1.0 0.00 0.00 0.00 81 1009.1
20260505093059 52 0 0.0 1.0 0.00 0.00 0.00 81 1009.1
20260505092558 52 0 0.0 1.0 0.00 0.00 0.00 81 1009.0
20260505092058 53 0 0.0 1.0 0.00 0.00 0.00 80 1009.0
20260505091606 53 0 0.0 1.0 0.00 0.00 0.00 80 1009.2
20260505091104 53 0 0.0 1.0 0.00 0.00 0.00 79 1009.2
20260505090559 53 0 0.0 1.0 0.00 0.00 0.00 79 1009.3
20260505090100 54 210 0.0 1.0 0.00 0.00 0.00 78 1009.1
20260505085559 54 0 0.0 1.0 0.00 0.00 0.00 78 1009.1
20260505085059 54 210 0.0 1.0 0.00 0.00 0.00 77 1009.0
20260505084600 55 0 0.0 1.0 0.00 0.00 0.00 76 1009.1
20260505084101 55 0 0.0 2.0 0.00 0.00 0.00 76 1009.1
20260505083558 55 0 0.0 2.0 0.00 0.00 0.00 75 1009.1
20260505083059 55 49 0.0 2.0 0.00 0.00 0.00 74 1009.1
20260505082558 55 0 0.0 1.0 0.00 0.00 0.00 74 1009.0
20260505082058 55 0 0.0 0.0 0.00 0.00 0.00 74 1009.0
20260505081605 56 0 0.0 0.0 0.00 0.00 0.00 74 1008.9
20260505081057 56 0 0.0 1.0 0.00 0.00 0.00 74 1008.9
20260505080559 56 91 0.0 1.0 0.00 0.00 0.00 74 1008.9
20260505080104 55 0 0.0 1.0 0.00 0.00 0.00 74 1008.9
20260505075558 55 0 0.0 1.0 0.00 0.00 0.00 75 1008.9
20260505075101 55 0 0.0 1.0 0.00 0.00 0.00 75 1008.8
20260505074609 55 0 0.0 1.0 0.00 0.00 0.00 75 1008.7
20260505074101 55 0 0.0 0.0 0.00 0.00 0.00 75 1008.8
20260505073559 54 0 0.0 1.0 0.00 0.00 0.00 75 1008.7
20260505073113 54 0 0.0 1.0 0.00 0.00 0.00 75 1008.8
20260505072558 54 0 0.0 0.0 0.00 0.00 0.00 75 1008.8
20260505072058 54 0 0.0 1.0 0.00 0.00 0.00 75 1008.8
20260505071610 54 0 0.0 1.0 0.00 0.00 0.00 75 1008.8
20260505071058 54 0 0.0 0.0 0.00 0.00 0.00 74 1008.9
20260505070601 55 0 0.0 0.0 0.00 0.00 0.00 74 1008.9
20260505070104 55 0 0.0 0.0 0.00 0.00 0.00 74 1008.9
20260505065559 55 0 0.0 1.0 0.00 0.00 0.00 73 1009.0
20260505065058 55 0 0.0 1.0 0.00 0.00 0.00 73 1009.0
20260505064600 56 0 0.0 1.0 0.00 0.00 0.00 72 1009.0
20260505064058 56 0 0.0 1.0 0.00 0.00 0.00 72 1009.0
20260505063558 56 0 0.0 1.0 0.00 0.00 0.00 71 1009.1
20260505063103 56 0 0.0 0.0 0.00 0.00 0.00 70 1009.1
20260505062558 56 0 0.0 1.0 0.00 0.00 0.00 70 1009.2
20260505062100 56 0 0.0 1.0 0.00 0.00 0.00 69 1009.2
20260505061604 57 0 0.0 1.0 0.00 0.00 0.00 69 1009.1
20260505061058 57 0 0.0 1.0 0.00 0.00 0.00 69 1009.2
20260505060601 57 0 0.0 1.0 0.00 0.00 0.00 68 1009.4
20260505060104 57 0 0.0 1.0 0.00 0.00 0.00 68 1009.4
20260505055602 57 83 0.0 1.0 0.00 0.00 0.00 68 1009.3
20260505055101 57 0 0.0 1.0 0.00 0.00 0.00 67 1009.3
20260505054628 57 0 0.0 1.0 0.00 0.00 0.00 66 1009.3
20260505054059 57 0 0.0 1.0 0.00 0.00 0.00 66 1009.4
20260505053558 57 0 0.0 1.0 0.00 0.00 0.00 67 1009.3
20260505053111 57 0 0.0 1.0 0.00 0.00 0.00 66 1009.2
20260505052558 57 0 0.0 0.0 0.00 0.00 0.00 66 1009.4
20260505052058 57 0 0.0 0.0 0.00 0.00 0.00 66 1009.3
20260505051610 57 0 0.0 0.0 0.00 0.00 0.00 65 1009.3
20260505051059 58 0 0.0 0.0 0.00 0.00 0.00 64 1009.3
20260505050559 58 0 0.0 0.0 0.00 0.00 0.00 63 1009.3
20260505050104 58 0 0.0 0.0 0.00 0.00 0.00 62 1009.4
20260505041602 63 0 0.0 1.0 0.00 0.00 0.00 52 1008.9
20260505041059 63 0 0.0 2.0 0.00 0.00 0.00 52 1008.8
20260505040559 63 0 0.0 2.0 0.00 0.00 0.00 51 1008.9
20260505040100 64 307 0.0 2.0 0.00 0.00 0.00 51 1008.8
20260505035558 63 129 0.0 3.0 0.00 0.00 0.00 51 1008.8
20260505035058 63 0 0.0 3.0 0.00 0.00 0.00 50 1008.9
20260505034601 64 0 0.0 3.0 0.00 0.00 0.00 50 1008.8
20260505034101 64 0 0.0 3.0 0.00 0.00 0.00 50 1008.8
20260505033602 64 152 0.0 3.0 0.00 0.00 0.00 50 1008.7
20260505033059 63 143 0.0 2.0 0.00 0.00 0.00 50 1008.8
20260505032558 63 0 0.0 2.0 0.00 0.00 0.00 50 1008.8
20260505032057 63 82 0.0 1.0 0.00 0.00 0.00 50 1008.9
20260505031610 64 0 0.0 1.0 0.00 0.00 0.00 50 1008.9
20260505031058 64 0 0.0 1.0 0.00 0.00 0.00 49 1008.9
20260505030558 64 0 0.0 1.0 0.00 0.00 0.00 49 1008.8
20260505030104 64 0 0.0 1.0 0.00 0.00 0.00 49 1008.8
20260505025558 64 0 0.0 4.0 0.00 0.00 0.00 48 1008.8
20260505025058 65 0 0.0 4.0 0.00 0.00 0.00 48 1009.0
20260505024603 65 96 0.0 3.0 0.00 0.00 0.00 49 1009.0
20260505024101 65 0 0.0 3.0 0.00 0.00 0.00 48 1009.0
20260505023558 65 212 0.0 2.0 0.00 0.00 0.00 48 1009.0
20260505023120 65 0 0.0 2.0 0.00 0.00 0.00 48 1009.0
20260505022558 65 0 0.0 2.0 0.00 0.00 0.00 47 1009.0
20260505022102 65 282 0.0 5.0 0.00 0.00 0.00 48 1009.0
20260505021601 66 122 0.0 7.0 0.00 0.00 0.00 47 1009.1
20260505021100 66 0 1.0 7.0 0.00 0.00 0.00 47 1009.1
20260505020601 66 292 1.0 8.0 0.00 0.00 0.00 47 1009.1
20260505020112 66 0 0.0 8.0 0.00 0.00 0.00 46 1009.0
20260505015559 66 0 2.0 8.0 0.00 0.00 0.00 46 1009.1
20260505015059 66 179 1.0 8.0 0.00 0.00 0.00 47 1009.0
20260505014611 66 149 0.0 6.0 0.00 0.00 0.00 46 1009.0